Flag for Brazil Weather past 2 weeks in Porto Velho, Rondônia, Brazil

Now
73 °F

Passing clouds.


Feels Like: 70 °F
Forecast: 74 / 85 °F
Wind: 2 mph from East

Location: Porto Velho Aeroporto

Current Time: May 5, 2015 at 11:28:35 PM

Latest Report: May 5, 2015 at 10:00 PM


Visibility: N/A

Pressure: 29.95 "Hg

Humidity: 94%

Dew point: 72 °F

Location of Porto VelhoLocation

Historic Weather in Porto Velho — Graph

°F

Porto Velho temperature yesterday

Maximum temperature yesterday: 90 °F (at 4:00 PM)
Minimum temperature yesterday: 73 °F (at 1:00 AM)
Average temperature yesterday: 80 °F

Past Weeks' High & Low Weather Summary

 TemperatureHumidityPressure
High90 °F (Apr 25, 2:00 PM)100% (Apr 21, 11:00 PM)30.01 "Hg (Apr 21, 11:00 PM)
Low70 °F (May 3, 4:00 AM)49% (Apr 25, 2:00 PM)29.74 "Hg (Apr 22, 4:00 PM)
Average78 °F86%29.86 "Hg
* Reported Apr 20 10:00 PM — May 5 10:00 PM, Porto Velho, Weather by CustomWeather, © 2015

Note: Actual official high and low records may vary slightly from our data, if they occured in-between our weather recording intervals... More about our weather records

Advertising

Porto Velho weather history for previous 24 hours

 ConditionsComfort  
Time TempWeatherWind HumidityBarometerVisibility
10:00 PM
Tue, May 5
73 °FPassing clouds.2 mph94%29.95 "HgN/A
9:00 PM73 °FPartly cloudy.2 mph94%29.92 "HgN/A
8:00 PM75 °FPartly cloudy.2 mph94%29.89 "HgN/A
7:00 PM75 °FPassing clouds.3 mph94%29.89 "HgN/A
6:00 PM77 °FBroken clouds.5 mph89%29.86 "HgN/A
5:00 PM77 °FBroken clouds.6 mph89%29.86 "HgN/A
4:00 PM79 °FBroken clouds.3 mph84%29.89 "HgN/A
3:00 PM79 °FPartly sunny.5 mph84%29.89 "HgN/A
2:00 PM77 °FPartly sunny.2 mph89%29.92 "HgN/A
1:00 PM75 °FPartly sunny.2 mph94%29.95 "HgN/A
12:00 PM73 °FLight rain. Broken clouds.3 mph100%29.98 "HgN/A
11:00 AM75 °FLight rain. Partly sunny.No wind94%30.01 "Hg3 mi
10:00 AM75 °FBroken clouds.6 mph94%30.01 "HgN/A
9:00 AM73 °FLight rain. Broken clouds.6 mph94%29.98 "Hg5 mi
8:00 AM73 °FLight rain. Broken clouds.5 mph94%29.95 "HgN/A
7:00 AM73 °FPartly sunny.2 mph94%29.92 "HgN/A
6:00 AM73 °FPartly cloudy.2 mph94%29.89 "HgN/A
5:00 AM73 °FPartly cloudy.No wind94%29.89 "HgN/A
4:00 AM73 °FPartly cloudy.3 mph94%29.89 "HgN/A
3:00 AM73 °FLight rain. Partly cloudy.2 mph100%29.89 "Hg5 mi
2:00 AM75 °FPartly cloudy.3 mph94%29.92 "HgN/A
1:00 AM75 °FLight rain. Passing clouds.2 mph94%29.92 "Hg5 mi
12:00 AM75 °FPartly cloudy.2 mph94%29.92 "Hg4 mi
11:47 PM
Mon, May 4
75 °FLight rain. Partly cloudy.3 mph94%29.92 "Hg3 mi
11:00 PM75 °FPassing clouds.No wind94%29.92 "HgN/A
Weather by CustomWeather, © 2015

See weather overviewHow to use our weather pages